Live-Position
3D-Globus wird geladen...
Über OneWeb SL0131
Group: 3 satellites
Beschreibung wird geladen...
Nächste Überflüge
Passes for default location (London). Set your location on the main map for personalized predictions.
Höhenverlauf
Loading altitude history...
No altitude history available
Zweizeiliger Elementsatz
1 47270U 20100N 26126.57114698 -.00000031 00000-0 -12166-3 0 9996
2 47270 87.8967 358.9481 0001840 83.3611 276.7727 13.12441031259116
Epoch: 6. Mai 2026 •
Age: 8 hours
Aktueller Status
Höhe 1229.4 km
Geschwindigkeit 7.24 km/s
Subsatellitenpunkt -38.41°S,
16.25°W
Startdatum 18. Dez. 2020
Alter 5.3 years
Typ internet
Startgruppe
Unknown Vehicle •
OneWeb Launch 4 •
36 satellites
OneWeb SL0128
47258
OneWeb SL0135 47259
OneWeb SL0145 47260
OneWeb SL0139 47261
OneWeb SL0127 47262
OneWeb SL0133 47263
OneWeb SL0118 47264
OneWeb SL0134 47265
OneWeb SL0102 47266
OneWeb SL0123 47267
OneWeb SL0110 47268
OneWeb SL0120 47269
OneWeb SL0142 47271
OneWeb SL0130 47272
OneWeb SL0136 47273
OneWeb SL0137 47274
OneWeb SL0147 47275
OneWeb SL0124 47276
OneWeb SL0126 47277
OneWeb SL0119 47278
...and 15 more
Technische Details
Klassifizierung Payload
Masse 148.00 kg
Trockenmasse 140.00 kg
Gesamtmasse 148.00 kg
Länge 1.30 m
Durchmesser 1.00 m
Spannweite 5.00 m
Form Trapezoid+2 pan
Hersteller ONEWUS
Bus-Typ ARROW
Phasenstatus In Orbit
Besitzer/Staat ONEWEB/UK
Most Searched
Loading...